• In Hungary
  • List of Countries
  • For 7 days
  • Water Temperature
  • Satellite Maps
  • Weather Map
  • News
  • Weather Widgets
  • user-avatar
    Login

    Hourly Weather Nagpur

    Today, 22 July, Sunday

    Time Temperature Precipitation Wind Pressure Humidity
    00:00 +27°C° 0.8 mm 5 mps 725 mmHg 87%
    01:00 +27°C° 0.8 mm 4 mps 725 mmHg 87%
    02:00 +27°C° 0.8 mm 4 mps 724 mmHg 87%
    03:00 +27°C° 0.5 mm 4 mps 724 mmHg 88%
    04:00 +27°C° 0.5 mm 4 mps 724 mmHg 88%
    05:00 +26°C° 0 mm 3 mps 724 mmHg 91%
    06:00 +27°C° 1 mm 3 mps 725 mmHg 89%
    07:00 +27°C° 1 mm 4 mps 725 mmHg 88%
    08:00 +27°C° 1 mm 5 mps 725 mmHg 87%
    09:00 +27°C° 1.1 mm 5 mps 725 mmHg 86%
    10:00 +28°C° 1.1 mm 5 mps 725 mmHg 85%
    11:00 +28°C° 1.1 mm 5 mps 725 mmHg 85%
    12:00 +28°C° 1.8 mm 5 mps 724 mmHg 86%
    13:00 +27°C° 1.8 mm 4 mps 724 mmHg 87%
    14:00 +27°C° 1.8 mm 4 mps 724 mmHg 87%
    15:00 +27°C° 2 mm 4 mps 723 mmHg 88%
    16:00 +27°C° 2 mm 4 mps 723 mmHg 90%
    17:00 +28°C° 0 mm 3 mps 723 mmHg 89%
    18:00 +27°C° 1.4 mm 3 mps 724 mmHg 89%
    19:00 +27°C° 1.4 mm 4 mps 724 mmHg 90%
    20:00 +27°C° 1.4 mm 4 mps 724 mmHg 90%
    21:00 +27°C° 1.1 mm 4 mps 724 mmHg 90%
    22:00 +27°C° 1.1 mm 4 mps 724 mmHg 91%
    23:00 +27°C° 1.1 mm 4 mps 724 mmHg 91%

    Tomorrow, 23 July, Monday

    Time Temperature Precipitation Wind Pressure Humidity
    00:00 +27°C° 2.3 mm 4 mps 724 mmHg 91%
    01:00 +27°C° 2.3 mm 5 mps 723 mmHg 91%
    02:00 +26°C° 2.3 mm 5 mps 723 mmHg 91%
    03:00 +26°C° 3.4 mm 6 mps 723 mmHg 91%
    04:00 +26°C° 3.4 mm 6 mps 723 mmHg 91%
    05:00 +26°C° 3.4 mm 6 mps 723 mmHg 92%
    06:00 +26°C° 4.7 mm 7 mps 723 mmHg 91%
    07:00 +26°C° 4.7 mm 7 mps 723 mmHg 91%
    08:00 +26°C° 4.7 mm 8 mps 723 mmHg 90%
    09:00 +26°C° 4.6 mm 8 mps 723 mmHg 90%
    10:00 +26°C° 4.6 mm 8 mps 723 mmHg 89%
    11:00 +27°C° 4.6 mm 8 mps 723 mmHg 88%
    12:00 +27°C° 2.2 mm 8 mps 723 mmHg 88%
    13:00 +27°C° 2.2 mm 8 mps 723 mmHg 87%
    14:00 +27°C° 2.2 mm 8 mps 722 mmHg 86%
    15:00 +27°C° 0.2 mm 7 mps 722 mmHg 86%
    16:00 +27°C° 0.2 mm 7 mps 722 mmHg 85%
    17:00 +27°C° 0.2 mm 6 mps 722 mmHg 85%
    18:00 +27°C° 0 mm 6 mps 723 mmHg 86%
    19:00 +27°C° 0 mm 5 mps 723 mmHg 88%
    20:00 +26°C° 0 mm 4 mps 723 mmHg 89%
    21:00 +26°C° 0 mm 4 mps 724 mmHg 89%
    22:00 +26°C° 0 mm 4 mps 724 mmHg 89%
    23:00 +26°C° 0 mm 4 mps 724 mmHg 89%

    Day after tomorrow, 24 July, Tuesday

    Time Temperature Precipitation Wind Pressure Humidity
    00:00 +26°C° 0 mm 4 mps 724 mmHg 90%
    01:00 +26°C° 0 mm 4 mps 724 mmHg 90%
    02:00 +26°C° 0 mm 4 mps 723 mmHg 90%
    03:00 +26°C° 0 mm 4 mps 723 mmHg 90%
    04:00 +26°C° 0 mm 4 mps 724 mmHg 90%
    05:00 +26°C° 0 mm 4 mps 724 mmHg 90%
    06:00 +26°C° 0 mm 5 mps 724 mmHg 87%
    07:00 +27°C° 0 mm 6 mps 725 mmHg 84%
    08:00 +28°C° 0 mm 7 mps 725 mmHg 80%
    09:00 +29°C° 0.3 mm 7 mps 725 mmHg 77%
    10:00 +30°C° 0.3 mm 7 mps 725 mmHg 73%
    11:00 +32°C° 0.3 mm 7 mps 725 mmHg 70%
    12:00 +32°C° 0.6 mm 7 mps 725 mmHg 69%
    13:00 +32°C° 0.6 mm 6 mps 724 mmHg 69%
    14:00 +32°C° 0.6 mm 6 mps 724 mmHg 68%
    15:00 +32°C° 0.7 mm 6 mps 724 mmHg 70%
    16:00 +32°C° 0.7 mm 6 mps 724 mmHg 71%
    17:00 +32°C° 0.7 mm 5 mps 724 mmHg 73%
    18:00 +30°C° 0.6 mm 5 mps 724 mmHg 76%
    19:00 +29°C° 0.6 mm 4 mps 725 mmHg 80%
    20:00 +28°C° 0.6 mm 4 mps 725 mmHg 84%
    21:00 +27°C° 0.1 mm 4 mps 725 mmHg 84%
    22:00 +27°C° 0.1 mm 4 mps 725 mmHg 85%
    23:00 +27°C° 0.1 mm 4 mps 726 mmHg 86%

    25 July, Wednesday

    Time Temperature Precipitation Wind Pressure Humidity
    00:00 +27°C° 0 mm 4 mps 725 mmHg 86%
    01:00 +27°C° 0 mm 4 mps 725 mmHg 86%
    02:00 +27°C° 0 mm 4 mps 725 mmHg 87%
    03:00 +26°C° 0 mm 4 mps 725 mmHg 87%
    04:00 +26°C° 0 mm 4 mps 725 mmHg 87%
    05:00 +26°C° 0 mm 4 mps 724 mmHg 88%
    06:00 +27°C° 0 mm 5 mps 725 mmHg 85%
    07:00 +28°C° 0 mm 5 mps 725 mmHg 82%
    08:00 +28°C° 0 mm 6 mps 726 mmHg 80%
    09:00 +29°C° 0.3 mm 6 mps 726 mmHg 77%
    10:00 +30°C° 0.3 mm 6 mps 726 mmHg 73%
    11:00 +32°C° 0.3 mm 7 mps 726 mmHg 70%
    12:00 +32°C° 0.6 mm 7 mps 725 mmHg 70%
    13:00 +32°C° 0.6 mm 7 mps 724 mmHg 70%
    14:00 +32°C° 0.6 mm 7 mps 724 mmHg 69%
    15:00 +32°C° 0.4 mm 7 mps 724 mmHg 70%
    16:00 +30°C° 0.4 mm 6 mps 724 mmHg 71%
    17:00 +30°C° 0.4 mm 6 mps 724 mmHg 73%
    18:00 +29°C° 0.2 mm 5 mps 724 mmHg 75%
    19:00 +29°C° 0.2 mm 5 mps 725 mmHg 78%
    20:00 +28°C° 0.2 mm 4 mps 725 mmHg 81%
    21:00 +27°C° 0 mm 4 mps 726 mmHg 82%
    22:00 +27°C° 0 mm 4 mps 726 mmHg 83%
    23:00 +27°C° 0 mm 4 mps 726 mmHg 84%

    26 July, Thursday

    Time Temperature Precipitation Wind Pressure Humidity
    00:00 +27°C° 0 mm 4 mps 725 mmHg 84%
    01:00 +27°C° 0 mm 4 mps 725 mmHg 85%
    02:00 +26°C° 0 mm 3 mps 725 mmHg 85%
    03:00 +26°C° 0 mm 3 mps 725 mmHg 86%
    04:00 +26°C° 0 mm 3 mps 725 mmHg 87%
    05:00 +26°C° 0 mm 3 mps 725 mmHg 87%
    06:00 +27°C° 0.1 mm 4 mps 725 mmHg 84%
    07:00 +28°C° 0.1 mm 5 mps 726 mmHg 80%
    08:00 +29°C° 0.1 mm 6 mps 726 mmHg 77%
    09:00 +29°C° 0.5 mm 6 mps 726 mmHg 76%
    10:00 +29°C° 0.5 mm 6 mps 726 mmHg 75%
    11:00 +29°C° 0.5 mm 6 mps 726 mmHg 75%
    12:00 +30°C° 0.7 mm 6 mps 726 mmHg 72%
    13:00 +32°C° 0.7 mm 7 mps 725 mmHg 69%
    14:00 +32°C° 0.7 mm 7 mps 725 mmHg 67%
    15:00 +32°C° 0.2 mm 7 mps 724 mmHg 68%
    16:00 +32°C° 0.2 mm 6 mps 724 mmHg 70%
    17:00 +30°C° 0.2 mm 5 mps 724 mmHg 71%
    18:00 +29°C° 0.6 mm 5 mps 725 mmHg 74%
    19:00 +29°C° 0.6 mm 5 mps 725 mmHg 78%
    20:00 +28°C° 0.6 mm 4 mps 726 mmHg 81%
    21:00 +28°C° 0.9 mm 4 mps 726 mmHg 82%
    22:00 +27°C° 0.9 mm 4 mps 726 mmHg 83%
    23:00 +27°C° 0.9 mm 4 mps 726 mmHg 84%

    27 July, Friday

    Time Temperature Precipitation Wind Pressure Humidity
    00:00 +27°C° 0.2 mm 4 mps 726 mmHg 85%
    01:00 +27°C° 0.2 mm 4 mps 725 mmHg 86%
    02:00 +27°C° 0.2 mm 4 mps 725 mmHg 86%
    03:00 +26°C° 0 mm 4 mps 725 mmHg 87%
    04:00 +26°C° 0 mm 3 mps 725 mmHg 88%
    05:00 +26°C° 0 mm 3 mps 725 mmHg 88%
    06:00 +27°C° 0 mm 4 mps 725 mmHg 85%
    07:00 +28°C° 0 mm 5 mps 726 mmHg 81%
    08:00 +29°C° 0 mm 6 mps 726 mmHg 77%
    09:00 +30°C° 0.4 mm 6 mps 726 mmHg 73%
    10:00 +32°C° 0.4 mm 6 mps 726 mmHg 70%
    11:00 +33°C° 0.4 mm 6 mps 726 mmHg 66%
    12:00 +33°C° 1.2 mm 6 mps 725 mmHg 67%
    13:00 +32°C° 1.2 mm 6 mps 724 mmHg 68%
    14:00 +32°C° 1.2 mm 6 mps 724 mmHg 69%
    15:00 +32°C° 0.8 mm 6 mps 724 mmHg 70%
    16:00 +32°C° 0.8 mm 5 mps 724 mmHg 72%
    17:00 +32°C° 0.8 mm 5 mps 723 mmHg 73%
    18:00 +30°C° 0.9 mm 4 mps 724 mmHg 76%
    19:00 +29°C° 0.9 mm 4 mps 725 mmHg 79%
    20:00 +28°C° 0.9 mm 4 mps 725 mmHg 82%
    21:00 +28°C° 0.6 mm 4 mps 725 mmHg 83%
    22:00 +27°C° 0.6 mm 4 mps 725 mmHg 84%
    23:00 +27°C° 0.6 mm 4 mps 726 mmHg 84%
    Show more